www.pogodaiklimat.ru

Погода и климат >> Архив погоды >> Иран >> Bam


ПОГОДА в Bam

  • Прогноз погоды в Bam
  • Монитор погоды в Bam
  • Климат города

АРХИВ ПОГОДЫ в Bam

Время (UTC), дата Ветер
(напр.,м/с)
 
Видим.   Явления Облачность Т
(С)
Тd
(С)
f
(%)
Тe
(С)
Тes
(С)
Комфортность P
(гПа)
Po
(гПа)
Тmin
(С)
Tmax
(С)
R
(мм)
R24
(мм)
S
(см)
03 11.10 З 3 20 км ясно +19.2 -1.7 24 +19 +20 1014.5 898.0 +18.2
06 11.10 В 1 15 км ясно +27.1 -6.9 10 +24 +35 комфорт 1014.2 898.6
09 11.10 СВ 3 10 км ясно +28.8 -6.8 9 +25 +36 комфорт 1012.3 896.6
12 11.10 С 4 10 км ясно +28.9 -3.9 11 +26 +28 жарко 1011.0 895.7
15 11.10 С 2 10 км ясно +25.2 -4.8 13 +23 +23 комфорт 1013.1 896.8 +29.8
18 11.10 СЗ 2 10 км ясно +21.3 -2.5 20 +21 +21 комфорт 1013.3 897.7
21 11.10 З 4 10 км ясно +21.0 -3.9 18 +21 +21 комфорт 1012.5 897.4
00 12.10 З 4 10 км ясно +19.3 -3.6 21 +19 +19 1012.3 896.8
03 12.10 З 4 10 км ясно +19.5 -2.2 23 +19 +20 1014.3 897.9 +18.7
06 12.10 СВ 1 10 км ясно +28.0 -0.8 15 +25 +37 комфорт 1014.5 899.0
09 12.10 СВ 3 10 км ясно +30.7 +0.1 14 +28 +38 жарко 1012.2 897.4
12 12.10 С 3 10 км ясно +30.2 -1.2 13 +27 +30 жарко 1011.6 896.5
15 12.10 штиль 0 10 км ясно +26.2 -0.6 17 +24 +24 комфорт 1013.5 897.5 +31.1
18 12.10 штиль 0 10 км ясно +21.9 +0.4 24 +21 +21 комфорт 1013.6 898.3
21 12.10 З 3 10 км ясно +22.5 -0.8 21 +22 +22 комфорт 1012.9 897.5
00 13.10 З 5 10 км ясно +20.3 -1.7 23 +20 +20 1012.7 897.6
03 13.10 З 4 10 км ясно +20.5 -1.3 23 +21 +21 комфорт 1014.5 898.5 +20.0
06 13.10 В 2 10 км ясно +28.9 -0.1 15 +26 +36 жарко 1015.0 899.7
09 13.10 С 5 10 км 1/1 1200 м
[Cu hum]
+30.0 -0.9 13 +27 +33 жарко 1013.7 898.9
12 13.10 С 5 7000 м мгла 1/1 1200 м
[Cu hum]
+29.0 -0.7 14 +26 +28 жарко 1013.6 898.2
15 13.10 С 2 10 км ясно +26.1 -0.2 18 +24 +24 комфорт 1015.0 899.0 +30.7
18 13.10 З 2 10 км ясно +23.7 -0.2 21 +23 +23 комфорт 1014.9 900.0
21 13.10 З 2 10 км ясно +21.5 +3.8 31 +22 +22 комфорт 1014.5 899.7
00 14.10 З 2 10 км ясно +20.1 +6.1 40 +21 +21 комфорт 1015.0 899.6
03 14.10 З 2 10 км ясно +18.7 +4.9 40 +20 +20 1017.5 901.0 +17.9
06 14.10 штиль 0 10 км ясно +25.5 +2.5 22 +24 +37 комфорт 1017.3 901.5
09 14.10 СВ 2 10 км 6/1 1050 м
[Cu med, cong Ac As]
+26.0 +2.5 22 +25 +32 комфорт 1015.0 899.2
12 14.10 С 2 10 км 8/8 1050 м
[Sc diur, vesp]
+26.4 +3.1 22 +25 +26 комфорт 1014.3 898.4
15 14.10 З 4 10 км 8/8 1200 м
[Cb calv]
+23.2 +9.4 41 +25 +25 комфорт 1015.5 898.8 +27.2
18 14.10 З 3 10 км 8/8 1200 м
[Cb calv]
+23.9 +7.2 34 +24 +24 комфорт 1013.4 898.4
21 14.10 З 3 10 км ясно +21.5 +7.4 40 +22 +22 комфорт 1012.4 897.6
00 15.10 З 2 10 км ясно +19.8 +7.4 45 +21 +21 комфорт 1012.8 897.2
03 15.10 З 2 10 км ясно +19.0 +7.3 47 +20 +20 1015.1 898.4 +18.4
06 15.10 В 1 10 км 1/1 1050 м
[Cu hum]
+25.7 +4.3 25 +25 +35 комфорт 1014.5 899.2
09 15.10 В 3 10 км 1/1 1050 м
[Cu med, cong]
+28.4 +3.8 21 +27 +36 жарко 1011.7 896.6
12 15.10 С 2 10 км 5/5 1200 м
[Cb calv]
+29.4 +3.2 19 +27 +29 жарко 1010.7 895.7
15 15.10 З 4 10 км 8/4 1200 м
[St Ac lent]
+23.4 +9.4 41 +25 +25 комфорт 1015.5 898.8 +30.1
18 15.10 З 2 10 км 4/4 1200 м
[Sc diur, vesp]
+22.4 +10.8 48 +24 +24 комфорт 1013.3 898.0
21 15.10 З 2 10 км 5/5 1200 м
[Sc diur, vesp]
+21.5 +9.3 46 +23 +23 комфорт 1012.0 897.1
00 16.10 З 2 10 км ясно +21.0 +8.0 43 +23 +23 комфорт 1012.0 897.2
03 16.10 З 4 10 км 6/6 1200 м
[Sc]
+20.6 +9.1 48 +22 +22 комфорт 1015.2 899.1 +20.6
06 16.10 СВ 2 10 км 5/5 1350 м
[Cu Sc]
+24.3 +7.5 34 +25 +29 комфорт 1016.3 900.3
09 16.10 С 3 10 км 9/5 1050 м
[Cb calv Ac As]
+24.7 +4.1 26 +24 +26 комфорт 1015.3 899.3
12 16.10 ЮЗ 2 10 км 9/6 1050 м
[Cb calv Ac As]
+22.2 +9.0 43 +24 +24 комфорт 1015.7 899.2
15 16.10 З 1 10 км 8/5 1200 м
[Cb calv Ac As]
+20.9 +8.7 46 +23 +23 комфорт 1016.7 899.8 +26.8
18 16.10 З 2 10 км 3/3 1200 м
[Cu hum]
+18.6 +9.4 55 +20 +20 1017.6 900.8
21 16.10 З 3 10 км ясно +17.0 +7.7 54 +17 +17 1016.9 900.0
00 17.10 З 4 10 км ясно +16.7 +6.3 50 +16 +16 1016.6 899.1
03 17.10 З 4 15 км 3/0 2000 м
[Ac trans]
+16.9 +5.3 46 +16 +17 1018.4 900.5 +16.2
06 17.10 СВ 1 15 км 1/1 600 м
[Cu hum]
+23.9 +1.0 22 +23 +32 комфорт 1018.4 901.2
09 17.10 СВ 3 10 км 1/1 900 м
[Cu med, cong]
+24.8 +0.3 20 +23 +32 комфорт 1016.0 899.0
12 17.10 СВ 4 10 км 3/3 1050 м
[Cb calv]
+24.8 +0.5 20 +23 +25 комфорт 1014.7 897.8
15 17.10 С 2 10 км 1/1 1200 м
[Sc diur, vesp]
+21.8 +1.4 26 +21 +21 комфорт 1015.9 898.3 +26.1
18 17.10 штиль 0 10 км ясно +19.2 +1.8 31 +19 +19 1016.0 899.1
21 17.10 З 2 10 км ясно +17.7 +2.3 36 +18 +18 898.2

 

Местоположение метеостанции Bam (Иран): широта 29.10 долгота 58.40 высота над уровнем моря 1067 м.

В архиве по умолчанию представлена погода в Bam за последнюю неделю. Архивные данные за месяц целиком и за предыдущие месяцы, начиная с января 2011 года, Вы можете получить, выбрав интересующий диапазон дат из раскрывающегося списка и нажав кнопку "Ввод!".


*Определитесь, кто Вы:
робот инопланетянин человек

Внимание! Время в таблицах - всемирное. Для получения местного времени необходимо прибавить поправку, которая в Bam равна 3.5 ч.

Смотрите также архив погоды в соседних городах и на ближайших метеорологических станциях:

Погода в Kahnuj (Иран) (143 км)
Погода в Baft (Иран) (178 км)
Погода в Kerman (Иран) (188 км)
Погода в Zahedan (Иран) (244 км)
Погода в Sirjan (Иран) (263 км)
Погода в Bandarabbass (Иран) (289 км)
Погода в Iranshahr (Иран) (309 км)
Погода в Nehbandan (Иран) (312 км)
Погода в Zabol (Иран) (367 км)
Погода в Khasab (Оман) (385 км)

Пояснения к столбцам:

Ветер - указаны скорость ветра в м/с - средняя за 10 мин, порывы в срок и между сроками (в фигурных скобках) и направление, откуда дует ветер: С - северный, СВ - северо-восточный, В - восточный, ЮВ - юго-восточный, Ю - южный, ЮЗ - юго-западный, З - западный, СЗ - северо-западный.
Видимость - горизонтальная дальность видимости в метрах или километрах. При видимости от 1 до 10 км при отсутствии осадков обычно наблюдается дымка, при ухудшении видимости до 1 км и менее - туман. В сухую погоду видимость может ухудшаться дымом, пылью или мглою.
Явления - указаны атмосферные явления, наблюдавшиеся в срок или в последний час перед сроком; фигурными скобками обозначены явления, наблюдавшиеся между сроками (за 1-3 часа до срока); квадратными скобками обозначены град или гололедные отложения с указанием их диаметра в мм.
Облачность - указаны через наклонную черту общая и нижняя облачность в баллах и высота нижней границы облаков в метрах; квадратными скобками обозначены формы облаков: Ci - перистые, Cs - перисто-слоистые, Cc - перисто-кучевые, Ac - высококучевые, As - высокослоистые, Sc - слоисто-кучевые, Ns - слоисто-дождевые, Cu - кучевые, Cb - кучево-дождевые. Подробнее классификацию облаков см. в Атласе облаков (PDF).
T - Температура воздуха - температура, измеренная на высоте 2 м над землей.
Td - Температура точки росы - температура, при понижении до которой содержащийся в воздухе водяной пар достигнет насыщения.
f - Относительная влажность воздуха - влажноcть воздуха, измеренная на высоте 2 м над землей.
Te - Эффективная температура - температура, которую ощущает одетый по сезону человек в тени. Характеристика душности погоды. При расчете учитывается влияние влажности воздуха и скорости ветра на теплоощущения человека.
Tes - Эффективная температура на солнце - температура, которую ощущает человек, с поправкой на солнечный нагрев. Характеристика знойности погоды. Зависит от высоты солнца над горизонтом, облачности и скорости ветра. Ночью, в пасмурную погоду, а также при ветре 12 м/с и более поправка равна нулю.
P - Атмосферное давление - приведенное к уровню моря атмосферное давление.
Po - Атмосферное давление - измеренное на уровне метеостанции атмосферное давление.
Tmin - Минимальная температура - минимум температуры воздуха на высоте 2 м над землей.
Tmax - Максимальная температура - максимум температуры воздуха на высоте 2 м над землей.
R - Количество осадков - Количество выпавших осадков за период времени, мм. При наведении курсора мыши на число - период времени, за который выпало указанное количество осадков.
R24 - Количество осадков - Количество выпавших осадков за 24 часа, мм.
S - Снежный покров - Высота снежного покрова, см. При наведении курсора мыши на число - состояние снежного покрова и степень покрытия местности в баллах.